Flag for Latvia Weather past 2 weeks in Jelgava, Latvia

Now
37 °F

Light rain. Mostly cloudy.


Feels Like: 34 °F
Forecast: 35 / 43 °F
Wind: 5 mph from Northwest

Location: Riga Airport

Current Time: Apr 2, 2015 at 10:33:02 AM

Latest Report: Apr 2, 2015 at 10:20 AM


Visibility: N/A

Pressure: 29.21 "Hg

Humidity: 93%

Dew point: 36 °F

Location of JelgavaLocation

Historic Weather in Jelgava — Graph

°F

Jelgava temperature yesterday

Maximum temperature yesterday: 41 °F (at 2:50 PM)
Minimum temperature yesterday: 36 °F (at 10:50 PM)
Average temperature yesterday: 38 °F

Past Weeks' High & Low Weather Summary

 TemperatureHumidityPressure
High57 °F (Mar 18, 2:20 PM)100% (Mar 20, 1:50 AM)30.72 "Hg (Mar 20, 1:50 AM)
Low19 °F (Mar 22, 6:50 AM)20% (Mar 18, 3:20 PM)28.94 "Hg (Mar 30, 5:50 PM)
Average39 °F79%29.81 "Hg
* Reported Mar 18 8:20 AM — Apr 2 9:20 AM, Jelgava, Weather by CustomWeather, © 2015

Note: Actual official high and low records may vary slightly from our data, if they occured in-between our weather recording intervals... More about our weather records

Advertising

Jelgava weather history for previous 24 hours

 ConditionsComfort  
Time TempWeatherWind HumidityBarometerVisibility
9:20 AM
Thu, Apr 2
36 °FLight rain. Low clouds.5 mph100%29.21 "Hg6 mi
8:50 AM36 °FLight rain. Low clouds.5 mph100%29.21 "HgN/A
8:20 AM36 °FLight rain. Low clouds.6 mph100%29.21 "HgN/A
7:50 AM36 °FLight rain. Mostly cloudy.5 mph100%29.21 "Hg6 mi
7:20 AM36 °FLight rain. Mostly cloudy.3 mph100%29.21 "HgN/A
6:50 AM36 °FLight rain. Mostly cloudy.6 mph100%29.21 "HgN/A
6:20 AM36 °FLight rain. Mostly cloudy.7 mph100%29.21 "HgN/A
5:50 AM36 °FLight rain. Mostly cloudy.6 mph100%29.21 "HgN/A
5:20 AM36 °FLight rain. Low clouds.7 mph100%29.21 "HgN/A
4:50 AM36 °FLight rain. Low clouds.6 mph100%29.21 "HgN/A
4:20 AM36 °FLight rain. Low clouds.7 mph100%29.21 "HgN/A
3:50 AM36 °FLight rain. Low clouds.9 mph100%29.21 "Hg6 mi
3:20 AM36 °FLight rain. Low clouds.9 mph100%29.21 "Hg5 mi
2:50 AM36 °FLight rain. Low clouds.8 mph100%29.21 "HgN/A
2:20 AM37 °FLight rain. Low clouds.10 mph93%29.21 "HgN/A
1:50 AM36 °FLight rain. Low clouds.8 mph100%29.21 "HgN/A
1:20 AM37 °FLight rain. Low clouds.8 mph93%29.21 "HgN/A
12:50 AM36 °FLight rain. Mostly cloudy.8 mph100%29.21 "HgN/A
12:20 AM37 °FLight rain. Mostly cloudy.8 mph93%29.21 "HgN/A
11:50 PM
Wed, Apr 1
37 °FLight rain. Mostly cloudy.9 mph93%29.21 "HgN/A
11:20 PM36 °FLight rain. Mostly cloudy.8 mph100%29.21 "HgN/A
10:50 PM36 °FLight rain. Mostly cloudy.9 mph100%29.21 "HgN/A
10:20 PM37 °FLight rain. Mostly cloudy.9 mph93%29.21 "HgN/A
9:50 PM37 °FLight rain. Mostly cloudy.9 mph93%29.21 "HgN/A
9:20 PM37 °FLight rain. Overcast.8 mph100%29.18 "HgN/A
8:50 PM37 °FLight rain. Cloudy.8 mph100%29.18 "HgN/A
8:20 PM37 °FLight rain. Cloudy.8 mph100%29.18 "HgN/A
7:50 PM37 °FLight rain. Cloudy.8 mph100%29.18 "HgN/A
7:20 PM37 °FLight rain. Mostly cloudy.7 mph100%29.18 "HgN/A
6:50 PM37 °FCloudy.7 mph100%29.18 "HgN/A
6:20 PM39 °FLight rain. Cloudy.9 mph93%29.15 "HgN/A
5:50 PM39 °FLight rain. Cloudy.8 mph93%29.15 "HgN/A
5:20 PM39 °FLight rain. More clouds than sun.8 mph93%29.15 "HgN/A
4:50 PM39 °FLight rain. More clouds than sun.7 mph93%29.15 "HgN/A
4:20 PM39 °FLight rain. More clouds than sun.7 mph93%29.12 "HgN/A
3:50 PM39 °FLight rain. More clouds than sun.6 mph93%29.12 "HgN/A
3:20 PM41 °FLight rain. Mostly cloudy.2 mph87%29.12 "HgN/A
2:50 PM41 °FLight rain. Mostly cloudy.5 mph87%29.12 "HgN/A
2:20 PM39 °FLight rain. Mostly cloudy.5 mph93%29.12 "HgN/A
1:50 PM39 °FLight rain. More clouds than sun.5 mph93%29.09 "HgN/A
1:20 PM39 °FLight rain. Mostly cloudy.7 mph93%29.09 "HgN/A
12:50 PM39 °FLight rain. Mostly cloudy.8 mph93%29.09 "HgN/A
12:20 PM37 °FLight rain. Mostly cloudy.8 mph100%29.09 "HgN/A
11:50 AM37 °FLight rain. Mostly cloudy.8 mph100%29.09 "Hg6 mi
11:20 AM37 °FLight rain. Low clouds.9 mph93%29.09 "HgN/A
10:50 AM37 °FLight rain. Mostly cloudy.8 mph93%29.06 "HgN/A
10:20 AM37 °FLight rain. Mostly cloudy.10 mph93%29.06 "HgN/A
Weather by CustomWeather, © 2015

See weather overviewHow to use our weather pages